Regional Weather Roundup
Issued by NWS

Home | Current Version | Previous Version | Text Only | Print | Product List | Glossary On
Versions: 1 2 3 4 5 6 7 8 9 10 11 12 13 14 15 16 17 18 19 20 21 22 23 24 25 26 27 28 29 30 31 32 33 34 35 36 37 38 39 40 41 42 43 44 45 46 47 48 49 50
000
ASUS46 KSEW 301510
RWRWA

WASHINGTON REGIONAL WEATHER ROUNDUP
NATIONAL WEATHER SERVICE SEATTLE WA
800 AM PDT SAT MAY 30 2015

NOTE:"FAIR" INDICATES FEW OR NO CLOUDS BELOW 12,000 FEET WITH NO
SIGNIFICANT WEATHER AND/OR OBSTRUCTIONS TO VISIBILITY.

WAZ505-507>509-301600-
SEATTLE, TACOMA, EVERETT, AND VICINITY

CITY           SKY/WX    TMP DP  RH WIND       PRES   REMARKS
EVERETT        MOSUNNY   54  47  77 SW7       29.97S
BOEING FIELD   PTSUNNY   55  46  71 SW5       29.98R
RENTON         CLOUDY    54  46  74 SE6       29.98R
SEATAC AIRPORT CLOUDY    52  46  80 SW8       29.98R
JBLM-MCCHORD   CLOUDY    52  48  87 SW7       29.99R
PUYALLUP       FAIR      54  48  82 CALM      29.99R
BREMERTON      CLOUDY    48  48 100 S5        30.01R
JBLM-FT LEWIS  MOSUNNY   52  48  86 SW8       29.98R
TACOMA NARROWS CLOUDY    51  45  79 S7        29.98S
$$

WAZ001-503-506-510-514-515-301600-
NORTH INTERIOR

CITY           SKY/WX    TMP DP  RH WIND       PRES   REMARKS
BELLINGHAM     MOSUNNY   57  46  66 S15G22    29.93S
FRIDAY HARBOR  SUNNY     54  48  80 SW7       29.95R
EASTSOUND      SUNNY     55  48  76 S9G18     29.92R
PORT ANGELES   SUNNY     54  46  74 W9        29.96S
PORT TOWNSEND  CLOUDY    52  48  87 CALM      29.97S
NAS WHIDBEY    MOSUNNY   56  53  90 SW9       30.01R
ARLINGTON      MOSUNNY   54  46  76 NW5       29.98S
BURLINGTON     PTSUNNY   55  50  82 S8        29.97S
$$

WAZ020-022-039-040-504-511-512-301600-
SOUTHWEST INTERIOR

CITY           SKY/WX    TMP DP  RH WIND       PRES   REMARKS
SHELTON        CLOUDY    50  45  83 SW10      29.96R
OLYMPIA        PTSUNNY   53  46  77 SW7       29.99R
CHEHALIS       CLOUDY    54  48  82 SW5       30.00R HAZE
KELSO          CLOUDY    54  43  66 N5        30.02S
VANCOUVER      PTSUNNY   53  45  74 VRB6      29.99R
SCAPPOOSE, OR  SUNNY     55  45  68 N6        29.98R
PORTLAND, OR   CLOUDY    54  47  77 NW7       29.99R
$$

WAZ021-516-517-301600-
WASHINGTON COAST

CITY           SKY/WX    TMP DP  RH WIND       PRES   REMARKS
FORKS          CLOUDY    52  48  86 NW5       29.99R
HOQUIAM        CLOUDY    53  47  79 W10       29.99S HAZE
ASTORIA, OR    CLOUDY    54  45  71 NW6       30.00S
$$

WAZ019-023-024-040-518-519-301600-
CASCADE MOUNTAINS AND COLUMBIA GORGE

CITY           SKY/WX    TMP DP  RH WIND       PRES   REMARKS
TROUTDALE, OR  PTSUNNY   54  47  77 NW5       29.98R
THE DALLES, OR MOSUNNY   67  53  61 NW13      29.87R
$$

WAZ026-027-041>044-520-521-301600-
EAST SLOPES

CITY           SKY/WX    TMP DP  RH WIND       PRES   REMARKS
OMAK           CLOUDY    63  56  78 N3        29.88F
WENATCHEE      PTSUNNY   66  56  70 W7        29.86F
ELLENSBURG     PTSUNNY   69  53  56 NW9       29.87F
YAKIMA         MOSUNNY   71  54  54 VRB5      29.86S
$$

WAZ028-034-035-301600-
COLUMBIA BASIN

CITY           SKY/WX    TMP DP  RH WIND       PRES   REMARKS
EPHRATA        PTSUNNY   68  52  56 NE9       29.85S
MOSES LAKE     MOSUNNY   68  53  58 VRB5      29.86S
PASCO          SUNNY     73  54  51 W7        29.85R
HERMISTON, OR  MOSUNNY   75  54  47 SW12      29.85R
$$

WAZ036>038-301600-
NORTHEAST WASHINGTON

CITY           SKY/WX    TMP DP  RH WIND       PRES   REMARKS
SPOKANE GEIGER PTSUNNY   63  52  67 E8        29.92S
SPOKANE FELTS  PTSUNNY   67  53  61 S8        29.92S
FAIRCHILD AFB  PTSUNNY   61  53  73 NE12      29.91F
COEURDALENE,ID MOSUNNY   61  54  77 N13       29.94S
DEER PARK      PTSUNNY   60  55  83 N9        29.94R
$$

WAZ029>033-301600-
SOUTHEAST WASHINGTON

CITY           SKY/WX    TMP DP  RH WIND       PRES   REMARKS
PULLMAN        PTSUNNY   66  54  65 SE8       29.94S
LEWISTON, ID   PTSUNNY   71  54  54 CALM      29.89S
WALLA WALLA    PTSUNNY   75  53  46 S5        29.86S
PENDLETON, OR  MOSUNNY   69  54  58 S3        29.89R
$$


USA.gov is the U.S. government's official web portal to all federal, state and local government web resources and services.